| time (UTC) | temp F | wind direction | speed knots | gust knots | rain 1hr in | rain 24hr in | rain mn in | humidity % | barometer mb |
| 20260502183027 | 55 | 182 | 0.9 | 1.7 | 0.00 | 0.00 | 0.00 | 78 | 1015.5 |
| 20260502182526 | 55 | 175 | 0.9 | 1.7 | 0.00 | 0.00 | 0.00 | 80 | 1015.5 |
| 20260502182030 | 55 | 167 | 0.9 | 3.5 | 0.00 | 0.00 | 0.00 | 79 | 1015.6 |
| 20260502182025 | 55 | 175 | 0.9 | 3.5 | 0.00 | 0.00 | 0.00 | 80 | 1015.6 |
| 20260502181033 | 55 | 164 | 0.9 | 3.5 | 0.00 | 0.00 | 0.00 | 79 | 1015.7 |
| 20260502181026 | 55 | 157 | 0.9 | 3.5 | 0.00 | 0.00 | 0.00 | 79 | 1015.6 |
| 20260502180525 | 55 | 152 | 0.9 | 3.5 | 0.00 | 0.00 | 0.00 | 80 | 1015.7 |
| 20260502163524 | 53 | 246 | 0.9 | 1.7 | 0.00 | 0.00 | 0.00 | 78 | 1016.1 |
| 20260502163020 | 53 | 284 | 0.9 | 3.5 | 0.00 | 0.00 | 0.00 | 78 | 1016.1 |
| 20260502162520 | 53 | 321 | 0.9 | 3.5 | 0.00 | 0.00 | 0.00 | 78 | 1016.1 |
| 20260502162021 | 53 | 252 | 0.9 | 2.6 | 0.00 | 0.00 | 0.00 | 84 | 1016.1 |
| 20260502161633 | 52 | 267 | 1.7 | 4.3 | 0.00 | 0.00 | 0.00 | 83 | 1016.3 |
| 20260502161525 | 53 | 270 | 1.7 | 3.5 | 0.00 | 0.00 | 0.00 | 83 | 1016.3 |
| 20260502161521 | 53 | 242 | 1.7 | 3.5 | 0.00 | 0.00 | 0.00 | 81 | 1016.2 |
| 20260502152017 | 49 | 299 | 1.7 | 3.5 | 0.00 | 0.00 | 0.00 | 86 | 1016.3 |
| 20260502151515 | 49 | 263 | 0.9 | 3.5 | 0.00 | 0.00 | 0.00 | 86 | 1016.2 |
| 20260502151023 | 48 | 271 | 0.9 | 3.5 | 0.00 | 0.00 | 0.00 | 87 | 1016.2 |
| 20260502151015 | 49 | 250 | 0.9 | 3.5 | 0.00 | 0.00 | 0.00 | 86 | 1016.2 |
| 20260502150515 | 49 | 296 | 0.9 | 3.5 | 0.00 | 0.00 | 0.00 | 87 | 1016.2 |
| 20260502130511 | 47 | 221 | 0.9 | 4.3 | 0.00 | 0.00 | 0.00 | 88 | 1016.6 |
| 20260502123509 | 47 | 225 | 0.9 | 2.6 | 0.00 | 0.00 | 0.00 | 88 | 1016.4 |
| 20260502123122 | 47 | 218 | 0.0 | 4.3 | 0.00 | 0.00 | 0.00 | 87 | 1016.3 |
| 20260502122622 | 47 | 217 | 0.9 | 4.3 | 0.00 | 0.00 | 0.00 | 87 | 1016.3 |
| 20260502122009 | 47 | 219 | 0.9 | 4.3 | 0.00 | 0.00 | 0.00 | 87 | 1016.2 |
| 20260502121623 | 47 | 236 | 0.9 | 5.2 | 0.00 | 0.00 | 0.00 | 87 | 1016.2 |
| 20260502120510 | 48 | 291 | 0.9 | 5.2 | 0.00 | 0.00 | 0.00 | 87 | 1016.2 |
| 20260502115514 | 48 | 216 | 0.9 | 5.2 | 0.00 | 0.00 | 0.00 | 87 | 1016.2 |
| 20260502115510 | 48 | 250 | 1.7 | 4.3 | 0.00 | 0.00 | 0.00 | 87 | 1016.4 |
| 20260502114507 | 48 | 202 | 1.7 | 5.2 | 0.00 | 0.00 | 0.00 | 87 | 1016.2 |
| 20260502114007 | 48 | 231 | 1.7 | 4.3 | 0.00 | 0.00 | 0.00 | 87 | 1016.3 |
| 20260502113507 | 48 | 240 | 1.7 | 7.0 | 0.00 | 0.00 | 0.00 | 87 | 1016.3 |
| 20260502113010 | 48 | 256 | 1.7 | 6.1 | 0.00 | 0.00 | 0.00 | 87 | 1016.3 |
| 20260502113006 | 48 | 220 | 1.7 | 7.0 | 0.00 | 0.00 | 0.00 | 87 | 1016.2 |
| 20260502112007 | 48 | 231 | 0.9 | 6.1 | 0.00 | 0.00 | 0.00 | 87 | 1016.2 |
| 20260502111506 | 48 | 258 | 0.9 | 5.2 | 0.00 | 0.00 | 0.00 | 88 | 1016.2 |
| 20260502111007 | 47 | 253 | 1.7 | 6.1 | 0.00 | 0.00 | 0.00 | 87 | 1016.2 |
| 20260502110507 | 47 | 235 | 1.7 | 6.1 | 0.00 | 0.00 | 0.00 | 87 | 1016.1 |
| 20260502110019 | 48 | 238 | 1.7 | 6.1 | 0.00 | 0.00 | 0.00 | 87 | 1016.0 |
| 20260502110008 | 47 | 258 | 1.7 | 6.1 | 0.00 | 0.00 | 0.00 | 87 | 1016.0 |
| 20260502105007 | 48 | 267 | 1.7 | 5.2 | 0.00 | 0.00 | 0.00 | 87 | 1015.9 |
| 20260502104522 | 48 | 259 | 1.7 | 5.2 | 0.00 | 0.00 | 0.00 | 87 | 1015.8 |
| 20260502104007 | 48 | 226 | 1.7 | 5.2 | 0.00 | 0.00 | 0.00 | 87 | 1016.1 |
| 20260502103508 | 48 | 243 | 1.7 | 7.8 | 0.00 | 0.00 | 0.00 | 87 | 1016.0 |
| 20260502103007 | 48 | 221 | 1.7 | 7.8 | 0.00 | 0.00 | 0.00 | 87 | 1016.0 |
| 20260502102512 | 48 | 254 | 2.6 | 7.0 | 0.00 | 0.00 | 0.00 | 87 | 1016.1 |
| 20260502102507 | 48 | 261 | 2.6 | 7.0 | 0.00 | 0.00 | 0.00 | 87 | 1016.0 |
| 20260502101506 | 49 | 291 | 1.7 | 7.0 | 0.00 | 0.00 | 0.00 | 87 | 1016.0 |
| 20260502101006 | 49 | 259 | 2.6 | 7.0 | 0.00 | 0.00 | 0.00 | 87 | 1016.1 |
| 20260502100508 | 49 | 298 | 1.7 | 7.0 | 0.00 | 0.00 | 0.00 | 86 | 1016.0 |
| 20260502091503 | 49 | 264 | 1.7 | 6.1 | 0.00 | 0.00 | 0.00 | 86 | 1016.7 |
| 20260502091004 | 49 | 252 | 1.7 | 7.8 | 0.00 | 0.00 | 0.00 | 86 | 1016.8 |
| 20260502090502 | 49 | 238 | 1.7 | 7.8 | 0.00 | 0.00 | 0.00 | 86 | 1016.9 |
| 20260502071001 | 50 | 231 | 1.7 | 6.1 | 0.00 | 0.00 | 0.00 | 85 | 1017.2 |
| 20260502070502 | 50 | 250 | 2.6 | 7.8 | 0.00 | 0.00 | 0.00 | 84 | 1017.3 |
| 20260502070000 | 50 | 317 | 2.6 | 7.8 | 0.00 | 0.00 | 0.00 | 84 | 1017.2 |
| 20260502065459 | 50 | 253 | 2.6 | 7.0 | 0.00 | 0.00 | 0.00 | 84 | 1017.3 |
| 20260502064959 | 50 | 264 | 2.6 | 7.0 | 0.00 | 0.00 | 0.00 | 84 | 1017.3 |
| 20260502064459 | 50 | 217 | 2.6 | 8.7 | 0.00 | 0.00 | 0.00 | 84 | 1017.3 |
| 20260502063958 | 50 | 304 | 2.6 | 8.7 | 0.00 | 0.00 | 0.00 | 85 | 1017.3 |
| 20260502063457 | 50 | 253 | 2.6 | 7.8 | 0.00 | 0.00 | 0.00 | 85 | 1017.3 |
| 20260502062958 | 50 | 265 | 2.6 | 7.0 | 0.00 | 0.00 | 0.00 | 85 | 1017.4 |
| 20260502062456 | 50 | 229 | 2.6 | 8.7 | 0.00 | 0.00 | 0.00 | 85 | 1017.3 |
| 20260502061958 | 50 | 284 | 3.5 | 8.7 | 0.00 | 0.00 | 0.00 | 84 | 1017.3 |
| 20260502061458 | 50 | 243 | 4.3 | 11.3 | 0.00 | 0.00 | 0.00 | 84 | 1017.4 |
| 20260502060956 | 50 | 223 | 3.5 | 11.3 | 0.00 | 0.00 | 0.00 | 85 | 1017.3 |
| 20260502060456 | 50 | 252 | 2.6 | 7.0 | 0.00 | 0.00 | 0.00 | 85 | 1017.3 |
| 20260502055955 | 51 | 232 | 2.6 | 7.8 | 0.00 | 0.00 | 0.00 | 84 | 1017.2 |
| 20260502055456 | 51 | 277 | 2.6 | 7.8 | 0.00 | 0.00 | 0.00 | 84 | 1017.1 |
| 20260502054955 | 51 | 242 | 3.5 | 8.7 | 0.00 | 0.00 | 0.00 | 84 | 1017.1 |
| 20260502054454 | 51 | 302 | 3.5 | 9.6 | 0.00 | 0.00 | 0.00 | 84 | 1017.1 |
| 20260502053958 | 51 | 286 | 2.6 | 8.7 | 0.00 | 0.00 | 0.00 | 84 | 1017.2 |
| 20260502053954 | 51 | 235 | 2.6 | 9.6 | 0.00 | 0.00 | 0.00 | 84 | 1017.1 |
| 20260502052956 | 51 | 257 | 2.6 | 10.4 | 0.00 | 0.00 | 0.00 | 85 | 1017.1 |
| 20260502052952 | 51 | 205 | 3.5 | 10.4 | 0.00 | 0.00 | 0.00 | 84 | 1017.2 |
| 20260502051957 | 51 | 217 | 3.5 | 11.3 | 0.00 | 0.00 | 0.00 | 85 | 1017.1 |
| 20260502051951 | 51 | 238 | 2.6 | 9.6 | 0.00 | 0.00 | 0.00 | 85 | 1017.1 |
| 20260502051450 | 51 | 288 | 3.5 | 11.3 | 0.00 | 0.00 | 0.00 | 85 | 1017.2 |
| 20260502050451 | 51 | 251 | 3.5 | 7.8 | 0.00 | 0.00 | 0.00 | 85 | 1017.0 |
| 20260502045955 | 51 | 335 | 2.6 | 7.8 | 0.00 | 0.00 | 0.00 | 85 | 1017.0 |
| 20260502045949 | 51 | 290 | 3.5 | 7.8 | 0.00 | 0.00 | 0.00 | 84 | 1017.0 |
| 20260502044948 | 51 | 228 | 3.5 | 10.4 | 0.00 | 0.00 | 0.00 | 84 | 1016.9 |
| 20260502044449 | 51 | 250 | 3.5 | 11.3 | 0.00 | 0.00 | 0.00 | 84 | 1016.9 |
| 20260502043948 | 51 | 303 | 4.3 | 11.3 | 0.00 | 0.00 | 0.00 | 84 | 1016.9 |
| 20260502043449 | 51 | 288 | 3.5 | 10.4 | 0.00 | 0.00 | 0.00 | 84 | 1016.8 |
| 20260502042949 | 51 | 232 | 3.5 | 10.4 | 0.00 | 0.00 | 0.00 | 84 | 1016.8 |
| 20260502042446 | 51 | 246 | 3.5 | 8.7 | 0.00 | 0.00 | 0.00 | 84 | 1016.8 |
| 20260502041947 | 51 | 193 | 3.5 | 10.4 | 0.00 | 0.00 | 0.00 | 84 | 1016.8 |
| 20260502041448 | 51 | 270 | 3.5 | 10.4 | 0.00 | 0.00 | 0.00 | 84 | 1016.7 |
| 20260502040946 | 51 | 252 | 3.5 | 8.7 | 0.00 | 0.00 | 0.00 | 84 | 1016.6 |
| 20260502040452 | 51 | 246 | 4.3 | 12.2 | 0.00 | 0.00 | 0.00 | 84 | 1016.4 |
| 20260502040448 | 51 | 232 | 4.3 | 12.2 | 0.00 | 0.00 | 0.00 | 84 | 1016.7 |
| 20260502035447 | 52 | 238 | 4.3 | 12.2 | 0.00 | 0.00 | 0.00 | 84 | 1016.4 |
| 20260502034946 | 52 | 270 | 3.5 | 12.2 | 0.00 | 0.00 | 0.00 | 83 | 1016.4 |
| 20260502034447 | 52 | 179 | 3.5 | 12.2 | 0.00 | 0.00 | 0.00 | 83 | 1016.3 |
| 20260502033948 | 52 | 236 | 3.5 | 12.2 | 0.00 | 0.00 | 0.00 | 83 | 1016.3 |
| 20260502033446 | 52 | 266 | 3.5 | 11.3 | 0.00 | 0.00 | 0.00 | 83 | 1016.3 |
| 20260502032946 | 52 | 257 | 3.5 | 17.4 | 0.00 | 0.00 | 0.00 | 83 | 1016.2 |
| 20260502032446 | 52 | 284 | 4.3 | 17.4 | 0.00 | 0.00 | 0.00 | 83 | 1016.3 |
| 20260502031946 | 52 | 254 | 4.3 | 12.2 | 0.00 | 0.00 | 0.00 | 83 | 1016.1 |
| 20260502031448 | 52 | 205 | 3.5 | 10.4 | 0.00 | 0.00 | 0.00 | 83 | 1016.1 |
| 20260502030946 | 52 | 269 | 2.6 | 10.4 | 0.00 | 0.00 | 0.00 | 83 | 1016.1 |
| 20260502030446 | 53 | 253 | 3.5 | 8.7 | 0.00 | 0.00 | 0.00 | 82 | 1016.0 |
| 20260502025947 | 53 | 209 | 3.5 | 12.2 | 0.00 | 0.00 | 0.00 | 82 | 1016.0 |
| 20260502025446 | 53 | 218 | 4.3 | 12.2 | 0.00 | 0.00 | 0.00 | 82 | 1015.9 |
| 20260502024953 | 53 | 194 | 3.5 | 9.6 | 0.00 | 0.00 | 0.00 | 81 | 1015.8 |
| 20260502024948 | 53 | 234 | 4.3 | 12.2 | 0.00 | 0.00 | 0.00 | 82 | 1015.8 |
| 20260502024447 | 53 | 278 | 4.3 | 12.2 | 0.00 | 0.00 | 0.00 | 81 | 1015.8 |
| 20260502024100 | 53 | 232 | 3.5 | 10.4 | 0.00 | 0.00 | 0.00 | 81 | 1015.7 |
| 20260502022945 | 54 | 199 | 4.3 | 11.3 | 0.00 | 0.00 | 0.00 | 80 | 1015.7 |
| 20260502022447 | 54 | 253 | 4.3 | 12.2 | 0.00 | 0.00 | 0.00 | 80 | 1015.5 |
| 20260502021944 | 54 | 245 | 4.3 | 12.2 | 0.00 | 0.00 | 0.00 | 80 | 1015.6 |
| 20260502021449 | 55 | 247 | 4.3 | 11.3 | 0.00 | 0.00 | 0.00 | 79 | 1015.5 |
| 20260502021444 | 54 | 227 | 4.3 | 11.3 | 0.00 | 0.00 | 0.00 | 79 | 1015.6 |
| 20260502021058 | 55 | 214 | 4.3 | 11.3 | 0.00 | 0.00 | 0.00 | 78 | 1015.5 |
| 20260502015945 | 55 | 277 | 4.3 | 11.3 | 0.00 | 0.00 | 0.00 | 78 | 1015.6 |
| 20260502015445 | 55 | 281 | 3.5 | 10.4 | 0.00 | 0.00 | 0.00 | 78 | 1015.7 |
| 20260502014944 | 56 | 244 | 3.5 | 10.4 | 0.00 | 0.00 | 0.00 | 77 | 1015.6 |
| 20260502014442 | 56 | 233 | 4.3 | 16.5 | 0.00 | 0.00 | 0.00 | 77 | 1015.6 |
| 20260502013940 | 56 | 281 | 4.3 | 16.5 | 0.00 | 0.00 | 0.00 | 76 | 1015.5 |
| 20260502013440 | 56 | 257 | 4.3 | 16.5 | 0.00 | 0.00 | 0.00 | 75 | 1015.5 |
| 20260502012941 | 56 | 243 | 5.2 | 16.5 | 0.00 | 0.00 | 0.00 | 75 | 1015.4 |
| 20260502012441 | 57 | 277 | 6.1 | 17.4 | 0.00 | 0.00 | 0.00 | 75 | 1015.5 |
| 20260502011941 | 57 | 213 | 6.1 | 17.4 | 0.00 | 0.00 | 0.00 | 73 | 1015.5 |
| 20260502011441 | 58 | 239 | 5.2 | 13.9 | 0.00 | 0.00 | 0.00 | 73 | 1015.4 |
| 20260502010940 | 58 | 235 | 5.2 | 13.9 | 0.00 | 0.00 | 0.00 | 72 | 1015.5 |
| 20260502010440 | 58 | 198 | 4.3 | 14.8 | 0.00 | 0.00 | 0.00 | 73 | 1015.4 |
| 20260502005940 | 58 | 288 | 4.3 | 14.8 | 0.00 | 0.00 | 0.00 | 73 | 1015.4 |
| 20260502005441 | 58 | 234 | 6.1 | 14.8 | 0.00 | 0.00 | 0.00 | 73 | 1015.4 |
| 20260502004940 | 58 | 231 | 7.0 | 14.8 | 0.00 | 0.00 | 0.00 | 72 | 1015.4 |
| 20260502004446 | 59 | 212 | 5.2 | 13.9 | 0.00 | 0.00 | 0.00 | 71 | 1015.3 |
| 20260502004441 | 59 | 215 | 6.1 | 13.9 | 0.00 | 0.00 | 0.00 | 72 | 1015.4 |
| 20260502003439 | 60 | 216 | 5.2 | 13.9 | 0.00 | 0.00 | 0.00 | 71 | 1015.3 |
| 20260502002940 | 60 | 215 | 6.1 | 13.9 | 0.00 | 0.00 | 0.00 | 70 | 1015.3 |
| 20260502002445 | 60 | 238 | 3.5 | 10.4 | 0.00 | 0.00 | 0.00 | 71 | 1015.3 |
| 20260502002439 | 60 | 194 | 4.3 | 13.0 | 0.00 | 0.00 | 0.00 | 70 | 1015.3 |
| 20260502001938 | 60 | 278 | 3.5 | 10.4 | 0.00 | 0.00 | 0.00 | 71 | 1015.3 |
| 20260502000937 | 61 | 219 | 4.3 | 11.3 | 0.00 | 0.00 | 0.00 | 70 | 1015.2 |
| 20260502000439 | 61 | 261 | 4.3 | 11.3 | 0.00 | 0.00 | 0.00 | 69 | 1015.1 |
| 20260501235936 | 62 | 237 | 4.3 | 11.3 | 0.00 | 0.00 | 0.00 | 68 | 1015.1 |
| 20260501235436 | 62 | 263 | 4.3 | 11.3 | 0.00 | 0.00 | 0.00 | 69 | 1015.1 |
| 20260501234936 | 62 | 250 | 4.3 | 12.2 | 0.00 | 0.00 | 0.00 | 68 | 1015.2 |
| 20260501234436 | 62 | 254 | 6.1 | 13.0 | 0.00 | 0.00 | 0.00 | 67 | 1015.2 |
| 20260501233936 | 62 | 247 | 5.2 | 13.0 | 0.00 | 0.00 | 0.00 | 68 | 1015.2 |
| 20260501233437 | 62 | 248 | 5.2 | 13.9 | 0.00 | 0.00 | 0.00 | 67 | 1015.2 |
| 20260501232937 | 62 | 232 | 6.1 | 13.9 | 0.00 | 0.00 | 0.00 | 69 | 1015.2 |
| 20260501232441 | 63 | 206 | 5.2 | 13.9 | 0.00 | 0.00 | 0.00 | 67 | 1015.3 |
| 20260501232436 | 62 | 193 | 6.1 | 13.9 | 0.00 | 0.00 | 0.00 | 67 | 1015.2 |
| 20260501232049 | 63 | 205 | 5.2 | 13.0 | 0.00 | 0.00 | 0.00 | 67 | 1015.3 |
| 20260501230939 | 63 | 273 | 6.1 | 13.0 | 0.00 | 0.00 | 0.00 | 67 | 1015.4 |
| 20260501230934 | 62 | 239 | 7.0 | 13.0 | 0.00 | 0.00 | 0.00 | 67 | 1015.3 |
| 20260501225934 | 64 | 251 | 5.2 | 13.0 | 0.00 | 0.00 | 0.00 | 66 | 1015.4 |
| 20260501225435 | 64 | 156 | 5.2 | 13.0 | 0.00 | 0.00 | 0.00 | 67 | 1015.5 |
| 20260501224933 | 64 | 265 | 5.2 | 13.9 | 0.00 | 0.00 | 0.00 | 65 | 1015.5 |
| 20260501224434 | 64 | 223 | 6.1 | 14.8 | 0.00 | 0.00 | 0.00 | 65 | 1015.4 |
| 20260501223935 | 64 | 245 | 6.1 | 14.8 | 0.00 | 0.00 | 0.00 | 65 | 1015.5 |
| 20260501223434 | 64 | 234 | 5.2 | 13.9 | 0.00 | 0.00 | 0.00 | 66 | 1015.5 |
| 20260501222933 | 65 | 211 | 4.3 | 12.2 | 0.00 | 0.00 | 0.00 | 64 | 1015.5 |
| 20260501222433 | 65 | 286 | 3.5 | 11.3 | 0.00 | 0.00 | 0.00 | 66 | 1015.5 |
| 20260501221933 | 65 | 268 | 3.5 | 10.4 | 0.00 | 0.00 | 0.00 | 66 | 1015.5 |
| 20260501221433 | 65 | 286 | 4.3 | 10.4 | 0.00 | 0.00 | 0.00 | 65 | 1015.6 |
| 20260501220932 | 65 | 313 | 4.3 | 10.4 | 0.00 | 0.00 | 0.00 | 66 | 1015.7 |
| 20260501220432 | 65 | 329 | 4.3 | 12.2 | 0.00 | 0.00 | 0.00 | 65 | 1015.7 |
| 20260501215932 | 65 | 209 | 5.2 | 12.2 | 0.00 | 0.00 | 0.00 | 66 | 1015.7 |
| 20260501215437 | 65 | 289 | 5.2 | 12.2 | 0.00 | 0.00 | 0.00 | 65 | 1015.8 |
| 20260501215431 | 65 | 223 | 5.2 | 12.2 | 0.00 | 0.00 | 0.00 | 64 | 1015.7 |
| 20260501214432 | 65 | 298 | 5.2 | 12.2 | 0.00 | 0.00 | 0.00 | 66 | 1015.8 |
| 20260501213933 | 65 | 205 | 4.3 | 12.2 | 0.00 | 0.00 | 0.00 | 65 | 1015.8 |
| 20260501213432 | 65 | 246 | 3.5 | 9.6 | 0.00 | 0.00 | 0.00 | 65 | 1015.9 |
| 20260501212933 | 65 | 291 | 4.3 | 12.2 | 0.00 | 0.00 | 0.00 | 65 | 1015.9 |
| 20260501212432 | 65 | 236 | 5.2 | 12.2 | 0.00 | 0.00 | 0.00 | 64 | 1015.8 |
| 20260501211931 | 66 | 220 | 3.5 | 11.3 | 0.00 | 0.00 | 0.00 | 64 | 1015.8 |
| 20260501211431 | 66 | 280 | 4.3 | 13.0 | 0.00 | 0.00 | 0.00 | 67 | 1015.8 |
| 20260501210933 | 66 | 250 | 6.1 | 13.0 | 0.00 | 0.00 | 0.00 | 66 | 1015.8 |
| 20260501210429 | 66 | 220 | 4.3 | 13.0 | 0.00 | 0.00 | 0.00 | 63 | 1015.8 |
| 20260501205934 | 67 | 231 | 3.5 | 8.7 | 0.00 | 0.00 | 0.00 | 65 | 1015.8 |
| 20260501205930 | 67 | 227 | 3.5 | 9.6 | 0.00 | 0.00 | 0.00 | 65 | 1015.8 |
| 20260501204928 | 67 | 245 | 4.3 | 12.2 | 0.00 | 0.00 | 0.00 | 64 | 1015.8 |
| 20260501204428 | 66 | 212 | 4.3 | 12.2 | 0.00 | 0.00 | 0.00 | 64 | 1015.8 |
| 20260501203928 | 66 | 209 | 4.3 | 11.3 | 0.00 | 0.00 | 0.00 | 64 | 1015.8 |
| 20260501203428 | 66 | 215 | 6.1 | 11.3 | 0.00 | 0.00 | 0.00 | 63 | 1016.0 |
| 20260501202934 | 66 | 224 | 4.3 | 9.6 | 0.00 | 0.00 | 0.00 | 63 | 1016.1 |
| 20260501202929 | 66 | 209 | 5.2 | 11.3 | 0.00 | 0.00 | 0.00 | 65 | 1016.1 |
| 20260501201927 | 66 | 273 | 5.2 | 10.4 | 0.00 | 0.00 | 0.00 | 70 | 1016.1 |
| 20260501201428 | 65 | 229 | 6.1 | 10.4 | 0.00 | 0.00 | 0.00 | 65 | 1016.2 |
| 20260501200927 | 65 | 221 | 5.2 | 10.4 | 0.00 | 0.00 | 0.00 | 65 | 1016.2 |
| 20260501200427 | 65 | 225 | 4.3 | 10.4 | 0.00 | 0.00 | 0.00 | 62 | 1016.3 |
| 20260501195928 | 66 | 200 | 4.3 | 9.6 | 0.00 | 0.00 | 0.00 | 65 | 1016.3 |
| 20260501195427 | 66 | 195 | 4.3 | 9.6 | 0.00 | 0.00 | 0.00 | 65 | 1016.4 |
| 20260501194927 | 66 | 211 | 3.5 | 8.7 | 0.00 | 0.00 | 0.00 | 66 | 1016.4 |
| 20260501194428 | 65 | 272 | 4.3 | 8.7 | 0.00 | 0.00 | 0.00 | 66 | 1016.4 |
| 20260501193928 | 65 | 219 | 4.3 | 8.7 | 0.00 | 0.00 | 0.00 | 66 | 1016.4 |
| 20260501193428 | 65 | 229 | 4.3 | 8.7 | 0.00 | 0.00 | 0.00 | 68 | 1016.6 |
| 20260501192927 | 65 | 198 | 3.5 | 10.4 | 0.00 | 0.00 | 0.00 | 66 | 1016.7 |
| 20260501192428 | 64 | 178 | 2.6 | 10.4 | 0.00 | 0.00 | 0.00 | 69 | 1016.7 |
| 20260501191927 | 64 | 220 | 4.3 | 10.4 | 0.00 | 0.00 | 0.00 | 67 | 1016.7 |
| 20260501191427 | 64 | 281 | 3.5 | 10.4 | 0.00 | 0.00 | 0.00 | 63 | 1016.7 |
| 20260501190928 | 65 | 231 | 2.6 | 7.8 | 0.00 | 0.00 | 0.00 | 64 | 1016.8 |
| 20260501190427 | 65 | 187 | 2.6 | 8.7 | 0.00 | 0.00 | 0.00 | 65 | 1016.8 |
| 20260501185929 | 65 | 261 | 2.6 | 8.7 | 0.00 | 0.00 | 0.00 | 68 | 1016.8 |
| 20260501185429 | 65 | 355 | 2.6 | 7.0 | 0.00 | 0.00 | 0.00 | 68 | 1016.9 |
| 20260501184932 | 65 | 261 | 2.6 | 9.6 | 0.00 | 0.00 | 0.00 | 68 | 1016.9 |
| 20260501184928 | 66 | 224 | 2.6 | 9.6 | 0.00 | 0.00 | 0.00 | 68 | 1016.9 |
| 20260501183927 | 65 | 305 | 2.6 | 7.0 | 0.00 | 0.00 | 0.00 | 64 | 1016.9 |